ARG1447 SANT-SAEZ

Flight info

Callsign ARG1447
Flight time 1h 27m
Altitude 35000
Route PUBER4A PUBER UL550 ROS UT672 MULTA UW24 SNT SNT7U
Aircraft B738/M-SDE2E3FGHIRWXY/LB1

Departure

Time 2026-05-04 23:52
Airport Teniente Benjamín Matienzo International Airport (SANT)

Arrival

Time 2026-05-05 01:19
Airport Ezeiza International Airport - Ministro Pistarini (SAEZ)
Time Latitude Longitude Altitude Speed Heading
2026-05-04 23:18 -26.83528 -65.10751 1491 ft 0 kts 279°
2026-05-04 23:42 -26.83533 -65.10729 1491 ft 4 kts 296°
2026-05-04 23:43 -26.83549 -65.10708 1476 ft 4 kts 336°
2026-05-04 23:43 -26.83574 -65.10703 1479 ft 3 kts
2026-05-04 23:43 -26.83579 -65.10704 1491 ft 1 kts 10°
2026-05-04 23:46 -26.83571 -65.10703 1491 ft 3 kts 10°
2026-05-04 23:47 -26.83529 -65.10694 1491 ft 9 kts 10°
2026-05-04 23:47 -26.83455 -65.10663 1480 ft 13 kts 38°
2026-05-04 23:47 -26.83387 -65.10600 1487 ft 12 kts 40°
2026-05-04 23:47 -26.83321 -65.10538 1492 ft 12 kts 39°
2026-05-04 23:48 -26.83257 -65.10479 1487 ft 12 kts 39°
2026-05-04 23:48 -26.83194 -65.10420 1487 ft 12 kts 40°
2026-05-04 23:48 -26.83133 -65.10363 1481 ft 11 kts 40°
2026-05-04 23:48 -26.83073 -65.10310 1482 ft 11 kts 34°
2026-05-04 23:49 -26.82991 -65.10269 1491 ft 15 kts 11°
2026-05-04 23:49 -26.82892 -65.10249 1485 ft 14 kts 10°
2026-05-04 23:49 -26.82788 -65.10228 1475 ft 18 kts 10°
2026-05-04 23:49 -26.82653 -65.10202 1483 ft 20 kts
2026-05-04 23:50 -26.82531 -65.10178 1478 ft 9 kts 11°
2026-05-04 23:50 -26.82468 -65.10185 1482 ft 10 kts 342°
2026-05-04 23:50 -26.82390 -65.10200 1491 ft 11 kts 11°
2026-05-04 23:50 -26.82380 -65.10156 1491 ft 5 kts 152°
2026-05-04 23:51 -26.82406 -65.10155 1491 ft 3 kts 187°
2026-05-04 23:51 -26.82429 -65.10159 1491 ft 3 kts 189°
2026-05-04 23:51 -26.82496 -65.10172 1478 ft 32 kts 190°
2026-05-04 23:51 -26.83019 -65.10275 1491 ft 118 kts 190°
2026-05-04 23:52 -26.84077 -65.10482 1518 ft 185 kts 189°
2026-05-04 23:52 -26.85393 -65.10735 2322 ft 198 kts 189°
2026-05-04 23:52 -26.86743 -65.10856 3561 ft 192 kts 174°
2026-05-04 23:52 -26.88082 -65.10459 4356 ft 208 kts 154°
2026-05-04 23:53 -26.89419 -65.09655 4750 ft 227 kts 146°
2026-05-04 23:53 -26.90815 -65.08675 5079 ft 246 kts 145°
2026-05-04 23:53 -26.92316 -65.07608 5410 ft 266 kts 145°
2026-05-04 23:53 -26.93955 -65.06452 5817 ft 286 kts 145°
2026-05-04 23:54 -26.95664 -65.05262 6652 ft 290 kts 146°
2026-05-04 23:54 -26.97394 -65.04057 7443 ft 296 kts 146°
2026-05-04 23:54 -26.99165 -65.02826 8232 ft 301 kts 146°
2026-05-04 23:54 -27.00956 -65.01584 8987 ft 306 kts 146°
2026-05-04 23:55 -27.02758 -65.00335 9688 ft 311 kts 147°
2026-05-04 23:55 -27.04617 -64.99045 10290 ft 320 kts 147°
2026-05-04 23:55 -27.08675 -64.96229 10670 ft 363 kts 147°
2026-05-04 23:56 -27.10849 -64.94722 11168 ft 371 kts 147°
2026-05-04 23:56 -27.13054 -64.93194 11796 ft 374 kts 147°
2026-05-04 23:56 -27.15282 -64.91645 12426 ft 377 kts 148°
2026-05-04 23:56 -27.17524 -64.90091 13027 ft 380 kts 148°
2026-05-04 23:57 -27.19785 -64.88524 13611 ft 383 kts 148°
2026-05-04 23:57 -27.22061 -64.86944 14202 ft 386 kts 148°
2026-05-04 23:57 -27.24353 -64.85352 14802 ft 389 kts 148°
2026-05-04 23:57 -27.26662 -64.83745 15383 ft 391 kts 148°
2026-05-04 23:58 -27.28987 -64.82126 15937 ft 394 kts 149°
2026-05-04 23:58 -27.31333 -64.80493 16470 ft 398 kts 149°
2026-05-04 23:58 -27.33696 -64.78847 17024 ft 401 kts 149°
2026-05-04 23:58 -27.36076 -64.77189 17554 ft 404 kts 149°
2026-05-04 23:59 -27.38439 -64.75540 18081 ft 406 kts 149°
2026-05-04 23:59 -27.40856 -64.73854 18606 ft 409 kts 149°
2026-05-04 23:59 -27.43283 -64.72159 19140 ft 412 kts 149°
2026-05-04 23:59 -27.45729 -64.70450 19634 ft 415 kts 150°
2026-05-05 00:00 -27.48194 -64.68728 20118 ft 417 kts 150°
2026-05-05 00:00 -27.49024 -64.68148 20302 ft 418 kts 150°
2026-05-05 00:00 -27.53151 -64.65262 21098 ft 422 kts 150°
2026-05-05 00:00 -27.55665 -64.63538 21548 ft 425 kts 151°
2026-05-05 00:01 -27.58213 -64.61829 21991 ft 427 kts 152°
2026-05-05 00:01 -27.60785 -64.60114 22420 ft 430 kts 152°
2026-05-05 00:01 -27.63368 -64.58393 22853 ft 433 kts 152°
2026-05-05 00:01 -27.65965 -64.56658 23272 ft 435 kts 152°
2026-05-05 00:02 -27.68579 -64.54908 23685 ft 437 kts 152°
2026-05-05 00:02 -27.71197 -64.53152 24082 ft 439 kts 152°
2026-05-05 00:02 -27.73834 -64.51377 24453 ft 442 kts 152°
2026-05-05 00:02 -27.76478 -64.49597 24810 ft 445 kts 152°
2026-05-05 00:03 -27.79147 -64.47799 25178 ft 447 kts 153°
2026-05-05 00:03 -27.81796 -64.46013 25537 ft 449 kts 153°
2026-05-05 00:03 -27.84487 -64.44198 25884 ft 452 kts 153°
2026-05-05 00:03 -27.87200 -64.42368 26212 ft 455 kts 153°
2026-05-05 00:04 -27.89922 -64.40530 26544 ft 457 kts 153°
2026-05-05 00:04 -27.92659 -64.38681 26885 ft 459 kts 153°
2026-05-05 00:04 -27.95400 -64.36827 27208 ft 461 kts 153°
2026-05-05 00:04 -27.98162 -64.34960 27519 ft 463 kts 154°
2026-05-05 00:05 -28.00943 -64.33077 27808 ft 466 kts 154°
2026-05-05 00:05 -28.03723 -64.31193 28095 ft 468 kts 154°
2026-05-05 00:05 -28.06519 -64.29297 28397 ft 469 kts 154°
2026-05-05 00:05 -28.09333 -64.27389 28683 ft 471 kts 154°
2026-05-05 00:06 -28.12151 -64.25477 28970 ft 473 kts 154°
2026-05-05 00:06 -28.14946 -64.23578 29251 ft 475 kts 154°
2026-05-05 00:06 -28.17787 -64.21648 29512 ft 477 kts 154°
2026-05-05 00:06 -28.20643 -64.19706 29782 ft 478 kts 154°
2026-05-05 00:07 -28.23504 -64.17759 30039 ft 480 kts 155°
2026-05-05 00:07 -28.26374 -64.15805 30301 ft 482 kts 155°
2026-05-05 00:07 -28.29243 -64.13852 30649 ft 481 kts 155°
2026-05-05 00:07 -28.32102 -64.11904 31032 ft 479 kts 155°
2026-05-05 00:08 -28.34953 -64.09961 31403 ft 477 kts 155°
2026-05-05 00:08 -28.36837 -64.08675 31624 ft 477 kts 155°
2026-05-05 00:08 -28.39683 -64.06734 31904 ft 477 kts 155°
2026-05-05 00:08 -28.42536 -64.04788 32170 ft 478 kts 155°
2026-05-05 00:09 -28.45380 -64.02844 32531 ft 476 kts 155°
2026-05-05 00:09 -28.48214 -64.00903 32885 ft 474 kts 155°
2026-05-05 00:09 -28.51038 -63.98971 33183 ft 474 kts 155°
2026-05-05 00:09 -28.53866 -63.97037 33444 ft 474 kts 155°
2026-05-05 00:10 -28.56691 -63.95103 33715 ft 473 kts 155°
2026-05-05 00:10 -28.59509 -63.93171 33986 ft 473 kts 155°
2026-05-05 00:10 -28.62334 -63.91234 34271 ft 472 kts 155°
2026-05-05 00:10 -28.65143 -63.89305 34576 ft 471 kts 156°
2026-05-05 00:11 -28.67943 -63.87383 34836 ft 470 kts 156°
2026-05-05 00:11 -28.73559 -63.83525 34870 ft 470 kts 156°
2026-05-05 00:12 -28.79144 -63.79679 34868 ft 467 kts 156°
2026-05-05 00:12 -28.84644 -63.75874 34866 ft 464 kts 156°
2026-05-05 00:13 -28.90152 -63.72039 34868 ft 463 kts 156°
2026-05-05 00:13 -28.95650 -63.68210 34879 ft 463 kts 156°
2026-05-05 00:14 -29.01162 -63.64369 34875 ft 464 kts 156°
2026-05-05 00:14 -29.06684 -63.60511 34869 ft 466 kts 155°
2026-05-05 00:15 -29.12226 -63.56639 34878 ft 468 kts 155°
2026-05-05 00:15 -29.17805 -63.52736 34874 ft 471 kts 155°
2026-05-05 00:16 -29.23402 -63.48813 34877 ft 472 kts 155°
2026-05-05 00:16 -29.29015 -63.44872 34883 ft 474 kts 155°
2026-05-05 00:17 -29.34607 -63.40943 34878 ft 475 kts 155°
2026-05-05 00:17 -29.40234 -63.36982 34880 ft 475 kts 155°
2026-05-05 00:18 -29.45862 -63.33017 34879 ft 474 kts 155°
2026-05-05 00:18 -29.51484 -63.29039 34876 ft 474 kts 155°
2026-05-05 00:19 -29.57082 -63.25063 34881 ft 473 kts 155°
2026-05-05 00:19 -29.62671 -63.21090 34880 ft 472 kts 155°
2026-05-05 00:20 -29.68253 -63.17117 34879 ft 472 kts 155°
2026-05-05 00:20 -29.73834 -63.13142 34880 ft 471 kts 155°
2026-05-05 00:21 -29.79399 -63.09171 34885 ft 470 kts 155°
2026-05-05 00:21 -29.84928 -63.05222 34888 ft 470 kts 155°
2026-05-05 00:22 -29.90519 -63.01224 34892 ft 469 kts 155°
2026-05-05 00:22 -29.96039 -62.97270 34889 ft 470 kts 155°
2026-05-05 00:23 -30.01593 -62.93286 34891 ft 470 kts 155°
2026-05-05 00:23 -30.07154 -62.89295 34887 ft 471 kts 155°
2026-05-05 00:24 -30.12729 -62.85286 34892 ft 472 kts 155°
2026-05-05 00:24 -30.18313 -62.81263 34889 ft 474 kts 155°
2026-05-05 00:25 -30.23912 -62.77226 34891 ft 475 kts 155°
2026-05-05 00:25 -30.29526 -62.73172 34888 ft 476 kts 155°
2026-05-05 00:26 -30.35104 -62.69137 34889 ft 476 kts 155°
2026-05-05 00:26 -30.40722 -62.65070 34887 ft 476 kts 155°
2026-05-05 00:27 -30.46339 -62.61003 34890 ft 476 kts 155°
2026-05-05 00:27 -30.51949 -62.56933 34889 ft 475 kts 155°
2026-05-05 00:28 -30.57557 -62.52860 34890 ft 475 kts 155°
2026-05-05 00:28 -30.63161 -62.48784 34891 ft 475 kts 155°
2026-05-05 00:29 -30.68751 -62.44709 34898 ft 474 kts 155°
2026-05-05 00:29 -30.74307 -62.40654 34898 ft 474 kts 155°
2026-05-05 00:30 -30.79889 -62.36580 34897 ft 473 kts 155°
2026-05-05 00:30 -30.85470 -62.32531 34902 ft 473 kts 155°
2026-05-05 00:31 -30.91054 -62.28476 34899 ft 473 kts 155°
2026-05-05 00:31 -30.96638 -62.24411 34897 ft 473 kts 155°
2026-05-05 00:32 -31.02218 -62.20341 34898 ft 473 kts 155°
2026-05-05 00:32 -31.07794 -62.16276 34900 ft 472 kts 155°
2026-05-05 00:33 -31.13367 -62.12205 34899 ft 472 kts 155°
2026-05-05 00:33 -31.18928 -62.08141 34893 ft 471 kts 155°
2026-05-05 00:34 -31.24478 -62.04052 34900 ft 471 kts 155°
2026-05-05 00:34 -31.30014 -61.99932 34901 ft 471 kts 155°
2026-05-05 00:35 -31.35503 -61.95840 34911 ft 470 kts 155°
2026-05-05 00:35 -31.41051 -61.91707 34905 ft 470 kts 155°
2026-05-05 00:36 -31.46530 -61.87624 34907 ft 469 kts 155°
2026-05-05 00:36 -31.52032 -61.83516 34905 ft 469 kts 155°
2026-05-05 00:37 -31.57538 -61.79400 34908 ft 469 kts 155°
2026-05-05 00:37 -31.63037 -61.75282 34909 ft 469 kts 155°
2026-05-05 00:38 -31.68541 -61.71154 34907 ft 469 kts 155°
2026-05-05 00:38 -31.74041 -61.67022 34908 ft 469 kts 155°
2026-05-05 00:39 -31.79541 -61.62886 34907 ft 469 kts 155°
2026-05-05 00:39 -31.85010 -61.58766 34909 ft 470 kts 155°
2026-05-05 00:40 -31.90521 -61.54612 34907 ft 471 kts 155°
2026-05-05 00:40 -31.96033 -61.50450 34912 ft 471 kts 155°
2026-05-05 00:41 -32.01553 -61.46276 34904 ft 471 kts 155°
2026-05-05 00:41 -32.07032 -61.42125 34908 ft 471 kts 155°
2026-05-05 00:42 -32.12538 -61.37949 34911 ft 470 kts 155°
2026-05-05 00:42 -32.18045 -61.33765 34905 ft 470 kts 155°
2026-05-05 00:43 -32.23541 -61.29584 34906 ft 469 kts 155°
2026-05-05 00:43 -32.29016 -61.25411 34911 ft 469 kts 155°
2026-05-05 00:44 -32.34501 -61.21228 34910 ft 468 kts 155°
2026-05-05 00:44 -32.39968 -61.17050 34905 ft 467 kts 155°
2026-05-05 00:45 -32.45428 -61.12872 34908 ft 467 kts 155°
2026-05-05 00:45 -32.50841 -61.08724 34908 ft 466 kts 155°
2026-05-05 00:46 -32.56280 -61.04550 34906 ft 466 kts 155°
2026-05-05 00:46 -32.61720 -61.00369 34907 ft 466 kts 155°
2026-05-05 00:47 -32.67157 -60.96184 34906 ft 465 kts 155°
2026-05-05 00:47 -32.72595 -60.91992 34909 ft 465 kts 154°
2026-05-05 00:48 -32.78028 -60.87797 34909 ft 466 kts 154°
2026-05-05 00:48 -32.83454 -60.83603 34914 ft 465 kts 155°
2026-05-05 00:49 -32.88883 -60.79398 34916 ft 465 kts 155°
2026-05-05 00:49 -32.94366 -60.75347 34918 ft 462 kts 158°
2026-05-05 00:50 -32.99945 -60.71549 34920 ft 461 kts 158°
2026-05-05 00:50 -33.05489 -60.67788 34915 ft 462 kts 158°
2026-05-05 00:51 -33.11064 -60.63957 34917 ft 462 kts 158°
2026-05-05 00:51 -33.16631 -60.60101 34718 ft 465 kts 158°
2026-05-05 00:51 -33.19423 -60.58163 34466 ft 462 kts 158°
2026-05-05 00:52 -33.22186 -60.56242 34214 ft 456 kts 158°
2026-05-05 00:52 -33.24899 -60.54350 33861 ft 449 kts 158°
2026-05-05 00:52 -33.27591 -60.52474 33469 ft 445 kts 158°
2026-05-05 00:52 -33.30253 -60.50623 33041 ft 441 kts 158°
2026-05-05 00:53 -33.32900 -60.48784 32621 ft 438 kts 158°
2026-05-05 00:53 -33.35522 -60.46960 32206 ft 435 kts 158°
2026-05-05 00:53 -33.38132 -60.45143 31790 ft 432 kts 157°
2026-05-05 00:53 -33.40726 -60.43338 31369 ft 429 kts 157°
2026-05-05 00:54 -33.43263 -60.41568 30962 ft 426 kts 157°
2026-05-05 00:54 -33.45815 -60.39785 30554 ft 423 kts 157°
2026-05-05 00:54 -33.48354 -60.38010 30151 ft 421 kts 157°
2026-05-05 00:54 -33.50870 -60.36250 29742 ft 418 kts 157°
2026-05-05 00:55 -33.53375 -60.34497 29335 ft 415 kts 157°
2026-05-05 00:55 -33.55865 -60.32753 28916 ft 413 kts 157°
2026-05-05 00:55 -33.58339 -60.31021 28494 ft 410 kts 157°
2026-05-05 00:55 -33.60790 -60.29302 28091 ft 407 kts 157°
2026-05-05 00:56 -33.63232 -60.27589 27679 ft 405 kts 157°
2026-05-05 00:56 -33.64842 -60.26458 27408 ft 403 kts 157°
2026-05-05 00:56 -33.68038 -60.24214 26872 ft 400 kts 157°
2026-05-05 00:56 -33.70430 -60.22533 26467 ft 397 kts 157°
2026-05-05 00:57 -33.72809 -60.20859 26066 ft 395 kts 157°
2026-05-05 00:57 -33.75174 -60.19194 25665 ft 393 kts 157°
2026-05-05 00:57 -33.77528 -60.17537 25266 ft 391 kts 157°
2026-05-05 00:57 -33.79110 -60.16423 24993 ft 389 kts 157°
2026-05-05 00:58 -33.81410 -60.14799 24611 ft 387 kts 156°
2026-05-05 00:58 -33.83602 -60.12888 24203 ft 394 kts 144°
2026-05-05 00:58 -33.85491 -60.10473 23828 ft 399 kts 132°
2026-05-05 00:58 -33.87072 -60.07724 23457 ft 399 kts 129°
2026-05-05 00:59 -33.88598 -60.04938 23062 ft 397 kts 128°
2026-05-05 00:59 -33.90112 -60.02165 22681 ft 396 kts 128°
2026-05-05 00:59 -33.91626 -59.99400 22285 ft 394 kts 129°
2026-05-05 00:59 -33.93136 -59.96664 21901 ft 392 kts 129°
2026-05-05 01:00 -33.94645 -59.93941 21517 ft 390 kts 129°
2026-05-05 01:00 -33.96146 -59.91241 21134 ft 388 kts 129°
2026-05-05 01:00 -33.97647 -59.88545 20758 ft 386 kts 129°
2026-05-05 01:00 -33.99138 -59.85864 20368 ft 384 kts 129°
2026-05-05 01:01 -34.00601 -59.83234 20005 ft 382 kts 129°
2026-05-05 01:01 -34.02076 -59.80582 19632 ft 380 kts 129°
2026-05-05 01:01 -34.03543 -59.77942 19262 ft 378 kts 129°
2026-05-05 01:01 -34.04999 -59.75318 18888 ft 376 kts 129°
2026-05-05 01:02 -34.06448 -59.72704 18518 ft 374 kts 129°
2026-05-05 01:02 -34.07890 -59.70106 18145 ft 372 kts 129°
2026-05-05 01:02 -34.09325 -59.67514 17769 ft 371 kts 129°
2026-05-05 01:02 -34.10754 -59.64931 17392 ft 369 kts 129°
2026-05-05 01:03 -34.12171 -59.62367 17020 ft 367 kts 129°
2026-05-05 01:03 -34.13584 -59.59810 16643 ft 365 kts 129°
2026-05-05 01:03 -34.14990 -59.57265 16268 ft 363 kts 129°
2026-05-05 01:03 -34.16392 -59.54724 15887 ft 362 kts 128°
2026-05-05 01:04 -34.17780 -59.52206 15525 ft 360 kts 128°
2026-05-05 01:04 -34.20525 -59.47226 14788 ft 357 kts 128°
2026-05-05 01:04 -34.21897 -59.44747 14417 ft 354 kts 130°
2026-05-05 01:05 -34.23538 -59.42562 13810 ft 351 kts 145°
2026-05-05 01:05 -34.25436 -59.40715 13414 ft 349 kts 146°
2026-05-05 01:05 -34.27335 -59.38882 13025 ft 348 kts 146°
2026-05-05 01:05 -34.29213 -59.37049 12691 ft 345 kts 146°
2026-05-05 01:06 -34.31061 -59.35225 12396 ft 341 kts 145°
2026-05-05 01:06 -34.32883 -59.33412 12087 ft 337 kts 145°
2026-05-05 01:06 -34.34684 -59.31612 11763 ft 334 kts 145°
2026-05-05 01:06 -34.36468 -59.29824 11427 ft 332 kts 144°
2026-05-05 01:07 -34.38218 -59.28066 11086 ft 329 kts 144°
2026-05-05 01:07 -34.39974 -59.26299 10738 ft 328 kts 143°
2026-05-05 01:07 -34.41722 -59.24538 10384 ft 326 kts 143°
2026-05-05 01:07 -34.43448 -59.22798 10226 ft 318 kts 143°
2026-05-05 01:08 -34.45129 -59.21104 10073 ft 310 kts 143°
2026-05-05 01:08 -34.46768 -59.19448 9924 ft 302 kts 142°
2026-05-05 01:08 -34.48375 -59.17823 9630 ft 300 kts 142°
2026-05-05 01:08 -34.49978 -59.16203 9344 ft 299 kts 142°
2026-05-05 01:09 -34.51571 -59.14593 9050 ft 297 kts 142°
2026-05-05 01:09 -34.53151 -59.12994 8754 ft 295 kts 141°
2026-05-05 01:09 -34.54726 -59.11400 8453 ft 294 kts 141°
2026-05-05 01:09 -34.56292 -59.09815 8156 ft 293 kts 141°
2026-05-05 01:10 -34.57831 -59.08255 7863 ft 291 kts 141°
2026-05-05 01:10 -34.59383 -59.06680 7565 ft 290 kts 141°
2026-05-05 01:10 -34.60926 -59.05109 7262 ft 289 kts 141°
2026-05-05 01:10 -34.62465 -59.03555 6965 ft 287 kts 141°
2026-05-05 01:11 -34.63998 -59.01999 6671 ft 286 kts 141°
2026-05-05 01:11 -34.65522 -59.00450 6381 ft 285 kts 141°
2026-05-05 01:11 -34.67040 -58.98904 6084 ft 284 kts 141°
2026-05-05 01:11 -34.68550 -58.97367 5802 ft 282 kts 141°
2026-05-05 01:12 -34.70047 -58.95842 5516 ft 281 kts 141°
2026-05-05 01:12 -34.71538 -58.94326 5292 ft 276 kts 141°
2026-05-05 01:12 -34.72973 -58.92866 5198 ft 262 kts 141°
2026-05-05 01:12 -34.74335 -58.91477 5048 ft 249 kts 141°
2026-05-05 01:13 -34.75601 -58.90102 4920 ft 241 kts 130°
2026-05-05 01:13 -34.76302 -58.88297 4713 ft 234 kts 99°
2026-05-05 01:13 -34.76566 -58.86394 4499 ft 225 kts 99°
2026-05-05 01:13 -34.76861 -58.84559 4254 ft 218 kts 100°
2026-05-05 01:14 -34.77153 -58.82775 4002 ft 212 kts 100°
2026-05-05 01:14 -34.77436 -58.81043 3797 ft 205 kts 100°
2026-05-05 01:14 -34.77707 -58.79357 3634 ft 203 kts 99°
2026-05-05 01:14 -34.77972 -58.77684 3417 ft 199 kts 99°
2026-05-05 01:15 -34.78233 -58.76048 3204 ft 194 kts 99°
2026-05-05 01:15 -34.78487 -58.74460 2996 ft 189 kts 99°
2026-05-05 01:15 -34.78742 -58.72894 2796 ft 188 kts 102°
2026-05-05 01:15 -34.79027 -58.71343 2615 ft 187 kts 105°
2026-05-05 01:16 -34.79320 -58.69857 2432 ft 175 kts 104°
2026-05-05 01:16 -34.79573 -58.68468 2246 ft 165 kts 104°
2026-05-05 01:16 -34.79809 -58.67140 2011 ft 159 kts 104°
2026-05-05 01:16 -34.80039 -58.65849 1794 ft 154 kts 104°
2026-05-05 01:17 -34.80262 -58.64586 1599 ft 152 kts 103°
2026-05-05 01:17 -34.80486 -58.63329 1402 ft 152 kts 103°
2026-05-05 01:17 -34.80710 -58.62075 1196 ft 152 kts 102°
2026-05-05 01:17 -34.80931 -58.60817 994 ft 153 kts 101°
2026-05-05 01:18 -34.81161 -58.59533 806 ft 156 kts 101°
2026-05-05 01:18 -34.81387 -58.58263 586 ft 152 kts 101°
2026-05-05 01:18 -34.81607 -58.57006 384 ft 151 kts 101°
2026-05-05 01:18 -34.81827 -58.55754 176 ft 151 kts 101°
2026-05-05 01:19 -34.82050 -58.54534 80 ft 135 kts 103°
2026-05-05 01:19 -34.82201 -58.53692 80 ft 72 kts 102°
2026-05-05 01:19 -34.82282 -58.53247 80 ft 44 kts 102°
2026-05-05 01:19 -34.82324 -58.53011 81 ft 15 kts 102°
2026-05-05 01:20 -34.82330 -58.52901 82 ft 12 kts 57°
2026-05-05 01:20 -34.82263 -58.52897 81 ft 8 kts 345°
2026-05-05 01:20 -34.82209 -58.52916 81 ft 8 kts 344°
2026-05-05 01:20 -34.82155 -58.52935 80 ft 8 kts 344°
2026-05-05 01:21 -34.82103 -58.52952 79 ft 8 kts 345°
2026-05-05 01:21 -34.82042 -58.52987 74 ft 12 kts 312°
2026-05-05 01:21 -34.82013 -58.53086 77 ft 11 kts 283°
2026-05-05 01:21 -34.81994 -58.53182 75 ft 12 kts 284°
2026-05-05 01:22 -34.81975 -58.53277 75 ft 11 kts 283°
2026-05-05 01:22 -34.81956 -58.53370 67 ft 11 kts 283°
2026-05-05 01:22 -34.81938 -58.53461 74 ft 11 kts 283°
2026-05-05 01:22 -34.81921 -58.53549 74 ft 11 kts 283°
2026-05-05 01:23 -34.81891 -58.53627 74 ft 10 kts 313°
2026-05-05 01:23 -34.81832 -58.53671 74 ft 10 kts 335°
2026-05-05 01:23 -34.81770 -58.53706 74 ft 10 kts 335°
2026-05-05 01:23 -34.81717 -58.53751 74 ft 10 kts 303°
2026-05-05 01:24 -34.81703 -58.53844 74 ft 13 kts 257°
2026-05-05 01:24 -34.81745 -58.53942 74 ft 13 kts 239°
2026-05-05 01:24 -34.81785 -58.54037 74 ft 13 kts 252°
2026-05-05 01:24 -34.81790 -58.54141 74 ft 12 kts 280°
2026-05-05 01:25 -34.81780 -58.54210 74 ft 7 kts 277°
2026-05-05 01:25 -34.81773 -58.54271 74 ft 7 kts 285°
2026-05-05 01:25 -34.81746 -58.54283 74 ft 4 kts 13°
2026-05-05 01:25 -34.81719 -58.54275 67 ft 5 kts 13°
2026-05-05 01:26 -34.81683 -58.54265 74 ft 5 kts 13°
2026-05-05 01:26 -34.81653 -58.54256 74 ft 0 kts 12°